Gewässerkundlicher Dienst Bayern
  • English version

Aktuelle Messwerte Ammerseeboje

Wind vom 08.06.2020 bis zum 14.06.2020
Besonderheit an dieser Messstelle
Aufgrund eines technischen Defekts werden momentan keine Messwerte von der Station übertragen

Aufgrund der besonderen Lage direkt im Wasser sind bei einzelnen Parametern (z.B. Relative Luftfeuchte) andere Messergebnisse zu erwarten als bei einer vergleichbaren Station auf dem Land.
Die Erfassung der meteorologischen Daten geschieht teilweise unter anderen technischen Rahmenbedingungen als an den normalen Wetterstationen:

Lufttemperatur, Relative Luftfeuchte, Luftdruck
Die Messung erfolgt in etwa 1,8 m Höhe über dem Wasserspiegel.

Windgeschwindigkeit
Die Messung erfolgt in etwa 1,8 m Höhe über dem Wasserspiegel. Die Messergebnisse werden nicht auf eine andere Masthöhe extrapoliert.

Globalstrahlung
Der Spektralbereich der Messung erfasst Wellenlängen zwischen etwa 0,3 bis 1,1 µm. Aufgrund von Bewegungen der Boje (Störung der lotrechten Position) können die Messwerte beeinflusst sein.

weiterführende Fachinformationen

BeginnEnde
Wind vom 08.06.2020 bis zum 14.06.2020
DatumWind [m/s]
14.06.2020 01:006,5
14.06.2020 00:009,0
13.06.2020 23:0010,1
13.06.2020 22:005,2
13.06.2020 21:001,6
13.06.2020 20:001,9
13.06.2020 19:002,4
13.06.2020 18:002,5
13.06.2020 17:002,2
13.06.2020 16:002,7
13.06.2020 15:003,0
13.06.2020 14:003,5
13.06.2020 13:002,1
13.06.2020 12:001,9
13.06.2020 11:001,7
13.06.2020 10:003,7
13.06.2020 09:004,6
13.06.2020 08:003,7
13.06.2020 07:002,4
13.06.2020 06:002,5
13.06.2020 05:003,8
13.06.2020 04:003,3
13.06.2020 03:002,0
13.06.2020 02:001,5
13.06.2020 01:001,2
13.06.2020 00:001,2
12.06.2020 23:001,6
12.06.2020 22:002,4
12.06.2020 21:002,6
12.06.2020 20:003,1
12.06.2020 19:004,5
12.06.2020 18:004,6
12.06.2020 17:004,2
12.06.2020 16:002,9
12.06.2020 15:002,9
12.06.2020 14:002,9
12.06.2020 13:004,1
12.06.2020 12:004,3
12.06.2020 11:003,5
12.06.2020 10:001,5
12.06.2020 09:001,6
12.06.2020 08:002,2
12.06.2020 07:004,0
12.06.2020 06:003,9
12.06.2020 05:003,0
12.06.2020 04:003,3
12.06.2020 03:002,1
12.06.2020 02:000,8
12.06.2020 01:001,8
12.06.2020 00:000,9
11.06.2020 23:001,4
11.06.2020 22:001,9
11.06.2020 21:001,8
11.06.2020 20:002,3
11.06.2020 19:003,3
11.06.2020 18:003,5
11.06.2020 17:001,5
11.06.2020 16:001,8
11.06.2020 15:001,7
11.06.2020 14:001,5
11.06.2020 13:001,6
11.06.2020 12:001,0
11.06.2020 11:000,8
11.06.2020 10:003,0
11.06.2020 09:002,5
11.06.2020 08:002,2
11.06.2020 07:002,0
11.06.2020 06:002,6
11.06.2020 05:002,8
11.06.2020 04:002,0
11.06.2020 03:004,0
11.06.2020 02:005,4
11.06.2020 01:005,4
11.06.2020 00:004,6
10.06.2020 23:005,2
10.06.2020 22:004,2
10.06.2020 21:005,0
10.06.2020 20:004,6
10.06.2020 19:004,6
10.06.2020 18:004,5
10.06.2020 17:004,8
10.06.2020 16:005,0
10.06.2020 15:004,8
10.06.2020 14:005,5
10.06.2020 13:003,3
10.06.2020 12:003,8
10.06.2020 11:003,0
10.06.2020 10:003,4
10.06.2020 09:003,3
10.06.2020 08:003,4
10.06.2020 07:003,4
10.06.2020 06:003,3
10.06.2020 05:003,3
10.06.2020 04:003,0
10.06.2020 03:002,9
10.06.2020 02:003,3
10.06.2020 01:003,2
10.06.2020 00:002,6
09.06.2020 23:002,8
09.06.2020 22:003,6
09.06.2020 21:003,5
09.06.2020 20:003,1
09.06.2020 19:003,7
09.06.2020 18:003,5
09.06.2020 17:004,1
09.06.2020 16:002,6
09.06.2020 15:004,2
09.06.2020 14:002,9
09.06.2020 13:004,1
09.06.2020 12:004,9
09.06.2020 11:004,7
09.06.2020 10:003,9
09.06.2020 09:003,8
09.06.2020 08:004,1
09.06.2020 07:004,5
09.06.2020 06:004,3
09.06.2020 05:004,1
09.06.2020 04:003,6
09.06.2020 03:003,4
09.06.2020 02:002,7
09.06.2020 01:003,2
09.06.2020 00:003,1
08.06.2020 23:001,5
08.06.2020 22:002,2
08.06.2020 21:003,5
08.06.2020 20:002,9
08.06.2020 19:003,3
08.06.2020 18:003,6
08.06.2020 17:003,7
08.06.2020 16:004,3
08.06.2020 15:004,3
08.06.2020 14:003,9
08.06.2020 13:004,4
08.06.2020 12:004,8
08.06.2020 11:004,7
08.06.2020 10:003,7
08.06.2020 09:002,3
08.06.2020 08:001,6
08.06.2020 07:001,2
08.06.2020 06:000,8
08.06.2020 05:001,4
08.06.2020 04:001,7
08.06.2020 03:001,6
08.06.2020 02:001,1
08.06.2020 01:002,2
Ihre Auswahl wurde erfolgreich in den Download-Korb gelegt.
Ihr Download-Korb wird verarbeitet. Nach erfolgreicher Generierung erhalten Sie den Download-Link per E-Mail zugesandt.

Den aktuellen Verarbeitungsstatus können Sie unter folgender URL prüfen: